User: anonymous   Login
Location: Azul
(36.7830°S, 59.8500°W)
Time: 01:13:04
(UTC-03:00)
Language:

VELOX 1 - Orbit

View from above orbital plane
View from above orbital plane
View from above satellite
View from above satellite

Ground track
Ground track

The orbit data is extracted from the following two-line orbital elements,

1 40057U 14034E   21295.85590434  .00000652  00000-0  97369-4 0  9996
2 40057  98.3425  94.4278 0010984  16.8294 343.3281 14.78321880394366
Epoch (UTC): 22 October 2021 20:32:30
Eccentricity: 0.0010984
inclination: 98.3425°
perigee height: 627 km
apogee height: 642 km
right ascension of ascending node: 94.4278°
argument of perigee: 16.8294°
revolutions per day: 14.78321880
mean anomaly at epoch: 343.3281°
orbit number at epoch: 39436

The dashed part of the orbit path shows where the satellite is in the earth's shadow,  

DLR